Location: Ferchesar
(52.6477°N, 12.4298°E)
Time: 23:56:37
(UTC+01:00)

Transit 2A Rocket - Pass Details

Date: 08 December 2021
Orbit: 584 x 918 km, 66.7° (Epoch: 21 January)

Event Time Altitude Azimuth Distance (km) Brightness Sun altitude
Rises 16:35:16 0° 314° (NW) 3,559 8.7 -5.8°
Reaches altitude 10° 16:38:25 10° 299° (WNW) 2,593 8.2 -6.2°
Maximum altitude 16:42:44 21° 254° (WSW) 1,888 8.3 -6.7°
Drops below altitude 10° 16:46:53 10° 207° (SSW) 2,474 8.6 -7.3°
Sets 16:49:50 0° 192° (SSW) 3,349 9.0 -7.7°
